Location: Newark
(25.0000°N, 73.5000°E)
Time: 01:12:35
(UTC+00:00)

Tiros 1 despin weight - Pass Details

Date: 05 March 2021
Orbit: 593 x 641 km, 48.2° (Epoch: 15 April)

Event Time Altitude Azimuth Distance (km) Brightness Sun altitude
Rises 01:01:18 0° 317° (NW) 2,934 ? -6.2°
Reaches altitude 10° 01:03:39 10° 319° (NW) 2,026 ? -5.7°
Maximum altitude 01:08:18 71° 44° (NE) 676 ? -4.6°
Drops below altitude 10° 01:12:57 10° 128° (SE) 2,017 ? -3.6°
Sets 01:15:16 0° 130° (SE) 2,920 ? -3.1°
